Time,TemperatureF,DewpointF,PressureIn,WindDirection,WindDirectionDegrees,WindSpeedMPH,WindSpeedGustMPH,Humidity,HourlyPrecipIn,Conditions,Clouds,dailyrainin,SoftwareType,DateUTC
2013-02-06 00:01:00,30.0,27.0,29.93,North,-999,-999.0,-999.0,91,-99.99,,,-99.99,,2013-02-06 05:01:00,
2013-02-06 00:11:00,30.0,27.0,29.93,North,-999,-999.0,-999.0,91,-99.99,,,-99.99,,2013-02-06 05:11:00,
2013-02-06 00:22:00,30.0,27.0,29.93,North,-999,-999.0,-999.0,91,-99.99,,,-99.99,,2013-02-06 05:22:00,
2013-02-06 00:31:00,30.0,27.0,29.93,North,-999,-999.0,-999.0,91,-99.99,,,-99.99,,2013-02-06 05:31:00,
2013-02-06 00:41:00,30.0,27.0,29.93,North,-999,-999.0,-999.0,91,-99.99,,,-99.99,,2013-02-06 05:41:00,
2013-02-06 00:52:00,30.0,27.0,29.94,North,-999,-999.0,-999.0,90,-99.99,,,-99.99,,2013-02-06 05:52:00,
2013-02-06 01:01:00,30.0,27.0,29.94,North,-999,-999.0,-999.0,90,-99.99,,,-99.99,,2013-02-06 06:01:00,
2013-02-06 01:11:00,30.0,27.0,29.94,North,-999,-999.0,-999.0,90,-99.99,,,-99.99,,2013-02-06 06:11:00,
2013-02-06 01:21:00,30.0,27.0,29.94,North,-999,-999.0,-999.0,90,-99.99,,,-99.99,,2013-02-06 06:21:00,
2013-02-06 01:31:00,30.0,27.0,29.94,North,-999,-999.0,-999.0,90,-99.99,,,-99.99,,2013-02-06 06:31:00,
2013-02-06 01:41:00,30.0,27.0,29.94,North,-999,-999.0,-999.0,90,-99.99,,,-99.99,,2013-02-06 06:41:00,
2013-02-06 01:51:00,29.0,27.0,29.94,North,-999,-999.0,-999.0,91,-99.99,,,-99.99,,2013-02-06 06:51:00,
2013-02-06 02:01:00,29.0,27.0,29.94,North,-999,-999.0,-999.0,91,-99.99,,,-99.99,,2013-02-06 07:01:00,
2013-02-06 02:11:00,29.0,27.0,29.94,North,-999,-999.0,-999.0,91,-99.99,,,-99.99,,2013-02-06 07:11:00,
2013-02-06 02:32:00,29.0,27.0,29.94,North,-999,-999.0,-999.0,92,-99.99,,,-99.99,,2013-02-06 07:32:00,
2013-02-06 02:41:00,29.0,27.0,29.94,North,-999,-999.0,-999.0,92,-99.99,,,-99.99,,2013-02-06 07:41:00,
2013-02-06 02:51:00,29.0,27.0,29.95,North,-999,-999.0,-999.0,91,-99.99,,,-99.99,,2013-02-06 07:51:00,
2013-02-06 03:01:00,29.0,27.0,29.95,North,-999,-999.0,-999.0,91,-99.99,,,-99.99,,2013-02-06 08:01:00,
2013-02-06 03:11:00,29.0,27.0,29.95,North,-999,-999.0,-999.0,91,-99.99,,,-99.99,,2013-02-06 08:11:00,
2013-02-06 03:21:00,29.0,27.0,29.95,North,-999,-999.0,-999.0,91,-99.99,,,-99.99,,2013-02-06 08:21:00,
2013-02-06 03:31:00,29.0,27.0,29.95,North,-999,-999.0,-999.0,92,-99.99,,,-99.99,,2013-02-06 08:31:00,
2013-02-06 03:41:00,29.0,27.0,29.95,North,-999,-999.0,-999.0,91,-99.99,,,-99.99,,2013-02-06 08:41:00,
2013-02-06 03:53:00,29.0,27.0,29.94,North,-999,-999.0,-999.0,92,-99.99,,,-99.99,,2013-02-06 08:53:00,
2013-02-06 04:01:00,29.0,27.0,29.94,North,-999,-999.0,-999.0,92,-99.99,,,-99.99,,2013-02-06 09:01:00,
2013-02-06 04:11:00,29.0,27.0,29.94,North,-999,-999.0,-999.0,92,-99.99,,,-99.99,,2013-02-06 09:11:00,
2013-02-06 04:21:00,29.0,27.0,29.95,North,-999,-999.0,-999.0,91,-99.99,,,-99.99,,2013-02-06 09:21:00,
2013-02-06 04:31:00,29.0,27.0,29.95,North,-999,-999.0,-999.0,91,-99.99,,,-99.99,,2013-02-06 09:31:00,
2013-02-06 04:41:00,29.0,27.0,29.95,North,-999,-999.0,-999.0,91,-99.99,,,-99.99,,2013-02-06 09:41:00,
2013-02-06 04:51:00,30.0,27.0,29.96,North,-999,-999.0,-999.0,91,-99.99,,,-99.99,,2013-02-06 09:51:00,
2013-02-06 05:01:00,30.0,27.0,29.96,North,-999,-999.0,-999.0,91,-99.99,,,-99.99,,2013-02-06 10:01:00,
2013-02-06 05:11:00,30.0,28.0,29.96,North,-999,-999.0,-999.0,91,-99.99,,,-99.99,,2013-02-06 10:11:00,
2013-02-06 05:21:00,30.0,28.0,29.96,North,-999,-999.0,-999.0,91,-99.99,,,-99.99,,2013-02-06 10:21:00,
2013-02-06 05:31:00,30.0,28.0,29.96,North,-999,-999.0,-999.0,91,-99.99,,,-99.99,,2013-02-06 10:31:00,
2013-02-06 05:41:00,30.0,28.0,29.96,North,-999,-999.0,-999.0,91,-99.99,,,-99.99,,2013-02-06 10:41:00,
2013-02-06 05:51:00,31.0,29.0,29.98,North,-999,-999.0,-999.0,91,-99.99,,,-99.99,,2013-02-06 10:51:00,
2013-02-06 06:01:00,31.0,29.0,29.98,North,-999,-999.0,-999.0,91,-99.99,,,-99.99,,2013-02-06 11:01:00,
2013-02-06 06:11:00,31.0,29.0,29.98,North,-999,-999.0,-999.0,91,-99.99,,,-99.99,,2013-02-06 11:11:00,
2013-02-06 06:21:00,31.0,29.0,29.98,North,-999,-999.0,-999.0,91,-99.99,,,-99.99,,2013-02-06 11:21:00,
2013-02-06 06:31:00,31.0,29.0,29.99,North,-999,-999.0,-999.0,91,-99.99,,,-99.99,,2013-02-06 11:31:00,
2013-02-06 06:41:00,31.0,28.0,30.00,North,-999,-999.0,-999.0,91,-99.99,,,-99.99,,2013-02-06 11:41:00,
2013-02-06 06:52:00,31.0,28.0,30.00,North,-999,-999.0,-999.0,91,-99.99,,,-99.99,,2013-02-06 11:52:00,
2013-02-06 07:01:00,31.0,28.0,30.00,North,-999,-999.0,-999.0,91,-99.99,,,-99.99,,2013-02-06 12:01:00,
2013-02-06 07:12:00,31.0,28.0,30.01,North,-999,-999.0,-999.0,90,-99.99,,,-99.99,,2013-02-06 12:12:00,
2013-02-06 07:21:00,31.0,28.0,30.01,North,-999,-999.0,-999.0,90,-99.99,,,-99.99,,2013-02-06 12:21:00,
2013-02-06 07:32:00,31.0,28.0,30.01,North,-999,-999.0,-999.0,90,-99.99,,,-99.99,,2013-02-06 12:32:00,
2013-02-06 07:41:00,31.0,28.0,30.01,North,-999,-999.0,-999.0,90,-99.99,,,-99.99,,2013-02-06 12:41:00,
2013-02-06 07:52:00,31.0,28.0,30.03,North,-999,-999.0,-999.0,88,-99.99,,,-99.99,,2013-02-06 12:52:00,
2013-02-06 08:01:00,31.0,28.0,30.03,North,-999,-999.0,-999.0,88,-99.99,,,-99.99,,2013-02-06 13:01:00,
2013-02-06 08:11:00,32.0,29.0,30.03,North,-999,-999.0,-999.0,88,-99.99,,,-99.99,,2013-02-06 13:11:00,
2013-02-06 08:21:00,32.0,29.0,30.03,North,-999,-999.0,-999.0,88,-99.99,,,-99.99,,2013-02-06 13:21:00,
2013-02-06 08:31:00,32.0,29.0,30.03,North,-999,-999.0,-999.0,88,-99.99,,,-99.99,,2013-02-06 13:31:00,
2013-02-06 08:41:00,32.0,29.0,30.05,North,-999,-999.0,-999.0,85,-99.99,,,-99.99,,2013-02-06 13:41:00,
2013-02-06 08:51:00,33.0,28.0,30.06,North,-999,-999.0,-999.0,83,-99.99,,,-99.99,,2013-02-06 13:51:00,
2013-02-06 09:00:00,34.0,27.0,30.08,North,-999,-999.0,-999.0,73,-99.99,,,-99.99,,2013-02-06 14:00:00,
2013-02-06 09:01:00,33.0,28.0,30.06,North,-999,-999.0,-999.0,83,-99.99,,,-99.99,,2013-02-06 14:01:00,
2013-02-06 09:11:00,33.0,28.0,30.06,North,-999,-999.0,-999.0,83,-99.99,,,-99.99,,2013-02-06 14:11:00,
2013-02-06 09:31:00,34.0,27.0,30.07,North,-999,-999.0,-999.0,76,-99.99,,,-99.99,,2013-02-06 14:31:00,
2013-02-06 09:41:00,34.0,27.0,30.08,North,-999,-999.0,-999.0,73,-99.99,,,-99.99,,2013-02-06 14:41:00,
2013-02-06 09:51:00,34.0,27.0,30.08,North,-999,-999.0,-999.0,73,-99.99,,,-99.99,,2013-02-06 14:51:00,
2013-02-06 11:21:00,37.0,24.0,30.11,North,-999,-999.0,-999.0,59,-99.99,,,-99.99,,2013-02-06 16:21:00,
2013-02-06 11:31:00,37.0,24.0,30.11,North,-999,-999.0,-999.0,58,-99.99,,,-99.99,,2013-02-06 16:31:00,
2013-02-06 11:41:00,37.0,24.0,30.11,North,-999,-999.0,-999.0,58,-99.99,,,-99.99,,2013-02-06 16:41:00,
2013-02-06 11:51:00,37.0,24.0,30.10,North,-999,-999.0,-999.0,57,-99.99,,,-99.99,,2013-02-06 16:51:00,
2013-02-06 12:01:00,37.0,24.0,30.10,North,-999,-999.0,-999.0,57,-99.99,,,-99.99,,2013-02-06 17:01:00,
2013-02-06 12:11:00,37.0,24.0,30.10,North,-999,-999.0,-999.0,57,-99.99,,,-99.99,,2013-02-06 17:11:00,
2013-02-06 12:32:00,37.0,22.0,30.10,North,-999,-999.0,-999.0,53,-99.99,,,-99.99,,2013-02-06 17:32:00,
2013-02-06 12:41:00,37.0,22.0,30.10,North,-999,-999.0,-999.0,53,-99.99,,,-99.99,,2013-02-06 17:41:00,
2013-02-06 12:52:00,37.0,22.0,30.10,North,-999,-999.0,-999.0,54,-99.99,,,-99.99,,2013-02-06 17:52:00,
2013-02-06 13:01:00,37.0,22.0,30.10,North,-999,-999.0,-999.0,54,-99.99,,,-99.99,,2013-02-06 18:01:00,
2013-02-06 13:11:00,36.0,22.0,30.11,North,-999,-999.0,-999.0,54,-99.99,,,-99.99,,2013-02-06 18:11:00,
2013-02-06 13:22:00,36.0,22.0,30.11,North,-999,-999.0,-999.0,54,-99.99,,,-99.99,,2013-02-06 18:22:00,
2013-02-06 13:32:00,36.0,22.0,30.11,North,-999,-999.0,-999.0,54,-99.99,,,-99.99,,2013-02-06 18:32:00,
2013-02-06 13:41:00,36.0,21.0,30.11,North,-999,-999.0,-999.0,54,-99.99,,,-99.99,,2013-02-06 18:41:00,
2013-02-06 13:52:00,36.0,22.0,30.11,North,-999,-999.0,-999.0,56,-99.99,,,-99.99,,2013-02-06 18:52:00,
2013-02-06 14:00:00,37.0,21.0,30.11,North,-999,-999.0,-999.0,52,-99.99,,,-99.99,,2013-02-06 19:00:00,
2013-02-06 14:01:00,36.0,22.0,30.11,North,-999,-999.0,-999.0,56,-99.99,,,-99.99,,2013-02-06 19:01:00,
2013-02-06 14:11:00,36.0,22.0,30.11,North,-999,-999.0,-999.0,56,-99.99,,,-99.99,,2013-02-06 19:11:00,
2013-02-06 14:21:00,36.0,22.0,30.11,North,-999,-999.0,-999.0,56,-99.99,,,-99.99,,2013-02-06 19:21:00,
2013-02-06 14:31:00,36.0,21.0,30.11,North,-999,-999.0,-999.0,53,-99.99,,,-99.99,,2013-02-06 19:31:00,
2013-02-06 14:41:00,37.0,21.0,30.11,North,-999,-999.0,-999.0,52,-99.99,,,-99.99,,2013-02-06 19:41:00,
2013-02-06 14:52:00,37.0,21.0,30.11,North,-999,-999.0,-999.0,52,-99.99,,,-99.99,,2013-02-06 19:52:00,
2013-02-06 16:00:00,39.0,20.0,30.15,North,-999,-999.0,-999.0,46,-99.99,,,-99.99,,2013-02-06 21:00:00,
2013-02-06 16:41:00,39.0,20.0,30.15,North,-999,-999.0,-999.0,46,-99.99,,,-99.99,,2013-02-06 21:41:00,
2013-02-06 16:51:00,39.0,20.0,30.15,North,-999,-999.0,-999.0,46,-99.99,,,-99.99,,2013-02-06 21:51:00,
2013-02-06 17:31:00,38.0,19.0,30.17,North,-999,-999.0,-999.0,46,-99.99,,,-99.99,,2013-02-06 22:31:00,
2013-02-06 17:41:00,38.0,18.0,30.18,North,-999,-999.0,-999.0,44,-99.99,,,-99.99,,2013-02-06 22:41:00,
2013-02-06 17:51:00,37.0,17.0,30.18,North,-999,-999.0,-999.0,44,-99.99,,,-99.99,,2013-02-06 22:51:00,
2013-02-06 18:01:00,37.0,17.0,30.18,North,-999,-999.0,-999.0,44,-99.99,,,-99.99,,2013-02-06 23:01:00,
2013-02-06 18:11:00,37.0,17.0,30.18,North,-999,-999.0,-999.0,44,-99.99,,,-99.99,,2013-02-06 23:11:00,
2013-02-06 18:31:00,37.0,17.0,30.20,North,-999,-999.0,-999.0,44,-99.99,,,-99.99,,2013-02-06 23:31:00,
2013-02-06 18:41:00,36.0,17.0,30.22,North,-999,-999.0,-999.0,45,-99.99,,,-99.99,,2013-02-06 23:41:00,
2013-02-06 18:51:00,36.0,17.0,30.22,North,-999,-999.0,-999.0,45,-99.99,,,-99.99,,2013-02-06 23:51:00,
2013-02-06 19:01:00,36.0,17.0,30.22,North,-999,-999.0,-999.0,45,-99.99,,,-99.99,,2013-02-07 00:01:00,
2013-02-06 19:11:00,36.0,17.0,30.22,North,-999,-999.0,-999.0,45,-99.99,,,-99.99,,2013-02-07 00:11:00,
2013-02-06 19:31:00,36.0,17.0,30.24,North,-999,-999.0,-999.0,46,-99.99,,,-99.99,,2013-02-07 00:31:00,
2013-02-06 19:41:00,35.0,18.0,30.25,North,-999,-999.0,-999.0,48,-99.99,,,-99.99,,2013-02-07 00:41:00,
2013-02-06 19:51:00,35.0,17.0,30.26,North,-999,-999.0,-999.0,48,-99.99,,,-99.99,,2013-02-07 00:51:00,
2013-02-06 20:01:00,35.0,17.0,30.26,North,-999,-999.0,-999.0,48,-99.99,,,-99.99,,2013-02-07 01:01:00,
2013-02-06 20:11:00,34.0,18.0,30.27,North,-999,-999.0,-999.0,50,-99.99,,,-99.99,,2013-02-07 01:11:00,
2013-02-06 20:21:00,34.0,18.0,30.28,North,-999,-999.0,-999.0,50,-99.99,,,-99.99,,2013-02-07 01:21:00,
2013-02-06 20:31:00,34.0,18.0,30.28,North,-999,-999.0,-999.0,50,-99.99,,,-99.99,,2013-02-07 01:31:00,
2013-02-06 20:41:00,34.0,18.0,30.28,North,-999,-999.0,-999.0,50,-99.99,,,-99.99,,2013-02-07 01:41:00,
2013-02-06 20:52:00,33.0,16.0,30.29,North,-999,-999.0,-999.0,47,-99.99,,,-99.99,,2013-02-07 01:52:00,
2013-02-06 21:01:00,33.0,16.0,30.29,North,-999,-999.0,-999.0,47,-99.99,,,-99.99,,2013-02-07 02:01:00,
2013-02-06 21:11:00,33.0,16.0,30.29,North,-999,-999.0,-999.0,47,-99.99,,,-99.99,,2013-02-07 02:11:00,
2013-02-06 21:21:00,33.0,15.0,30.30,North,-999,-999.0,-999.0,46,-99.99,,,-99.99,,2013-02-07 02:21:00,
2013-02-06 21:31:00,33.0,15.0,30.30,North,-999,-999.0,-999.0,47,-99.99,,,-99.99,,2013-02-07 02:31:00,
2013-02-06 21:41:00,33.0,15.0,30.30,North,-999,-999.0,-999.0,47,-99.99,,,-99.99,,2013-02-07 02:41:00,
2013-02-06 21:51:00,33.0,15.0,30.30,North,-999,-999.0,-999.0,47,-99.99,,,-99.99,,2013-02-07 02:51:00,
2013-02-06 22:01:00,33.0,14.0,30.31,North,-999,-999.0,-999.0,45,-99.99,,,-99.99,,2013-02-07 03:01:00,
2013-02-06 22:11:00,33.0,14.0,30.31,North,-999,-999.0,-999.0,45,-99.99,,,-99.99,,2013-02-07 03:11:00,
2013-02-06 22:31:00,32.0,12.0,30.32,North,-999,-999.0,-999.0,43,-99.99,,,-99.99,,2013-02-07 03:31:00,
2013-02-06 22:41:00,32.0,12.0,30.32,North,-999,-999.0,-999.0,43,-99.99,,,-99.99,,2013-02-07 03:41:00,
2013-02-06 22:51:00,32.0,12.0,30.32,North,-999,-999.0,-999.0,43,-99.99,,,-99.99,,2013-02-07 03:51:00,
2013-02-06 23:01:00,31.0,12.0,30.34,North,-999,-999.0,-999.0,44,-99.99,,,-99.99,,2013-02-07 04:01:00,
2013-02-06 23:11:00,31.0,12.0,30.34,North,-999,-999.0,-999.0,44,-99.99,,,-99.99,,2013-02-07 04:11:00,
2013-02-06 23:21:00,31.0,12.0,30.34,North,-999,-999.0,-999.0,44,-99.99,,,-99.99,,2013-02-07 04:21:00,
2013-02-06 23:31:00,31.0,11.0,30.35,North,-999,-999.0,-999.0,43,-99.99,,,-99.99,,2013-02-07 04:31:00,
2013-02-06 23:41:00,31.0,11.0,30.35,North,-999,-999.0,-999.0,43,-99.99,,,-99.99,,2013-02-07 04:41:00,
2013-02-06 23:52:00,31.0,11.0,30.36,North,-999,-999.0,-999.0,43,-99.99,,,-99.99,,2013-02-07 04:52:00,